Home   Weather   San Luis Obispo   Past weeks
Flag for USA

Past Weather in San Luis Obispo, California, USA — Yesterday and Last 2 Weeks

Now
57 °F

Mostly cloudy.


Feels Like: 56 °F
Forecast: 68 / 53 °F
Wind: 6 mph from South

Location: San Luis Obispo County-Mc Chesney Field

Current Time: May 23, 2019 at 8:09:35 pm

Latest Report: May 23, 2019 at 6:56 pm


Visibility: 10 mi

Pressure: 29.96 "Hg

Humidity: 83%

Dew Point: 52 °F

Location of San Luis ObispoLocation

Past Weather in San Luis Obispo — Graph

°F

San Luis Obispo Temperature Yesterday

Maximum temperature yesterday: 63 °F (at 12:56 pm)
Minimum temperature yesterday: 47 °F (at 5:56 am)
Average temperature yesterday: 55 °F

High & Low Weather Summary for the Past Weeks

 TemperatureHumidityPressure
High77 °F (May 11, 11:56 am)100% (May 20, 6:59 am)30.12 "Hg (May 20, 6:59 am)
Low45 °F (May 17, 3:56 am)40% (May 17, 11:56 am)29.76 "Hg (May 9, 6:56 pm)
Average57 °F79%29.92 "Hg
* Reported May 8 6:56 pm — May 23 6:56 pm, San Luis Obispo. Weather by CustomWeather, © 2019

Note: Actual official high and low records may vary slightly from our data, if they occured in-between our weather recording intervals... More about our weather records

Advertising

San Luis Obispo Weather History for the Previous 24 Hours

Scroll right to see more
 ConditionsComfort  
Time TempWeatherWind HumidityBarometerVisibility
6:56 pm
Thu, May 23
57 °FMostly cloudy.6 mph83%29.96 "Hg10 mi
5:56 pm58 °FOvercast.7 mph81%29.95 "Hg10 mi
4:56 pm59 °FMostly cloudy.9 mph78%29.95 "Hg10 mi
3:56 pm62 °FBroken clouds.10 mph70%29.94 "Hg10 mi
2:56 pm63 °FPartly sunny.9 mph70%29.93 "Hg10 mi
2:27 pm63 °FOvercast.12 mph70%29.94 "Hg10 mi
1:56 pm62 °FMostly cloudy.13 mph70%29.93 "Hg10 mi
1:03 pm61 °FMostly cloudy.8 mph72%29.93 "Hg10 mi
12:56 pm61 °FMostly cloudy.12 mph72%29.93 "Hg10 mi
11:58 am59 °FMostly cloudy.10 mph84%29.92 "Hg10 mi
10:56 am57 °FLight rain. Fog.8 mph87%29.91 "Hg4 mi
9:56 am56 °FLight rain. Mostly cloudy.No wind90%29.90 "Hg8 mi
8:56 am55 °FFog.No wind93%29.89 "Hg5 mi
8:17 am54 °FLight rain. Fog.No wind97%29.89 "Hg1 mi
7:56 am54 °FFog.5 mph93%29.88 "Hg2 mi
7:32 am54 °FFog.5 mph93%29.88 "Hg2 mi
6:56 am53 °FFog.3 mph96%29.87 "Hg2 mi
6:35 am53 °FFog.5 mph96%29.87 "Hg2 mi
5:56 am53 °FFog.6 mph93%29.85 "Hg5 mi
4:56 am53 °FFog.No wind89%29.85 "Hg5 mi
3:56 am54 °FOvercast.3 mph86%29.85 "Hg8 mi
2:56 am54 °FOvercast.7 mph86%29.85 "Hg9 mi
1:56 am54 °FOvercast.3 mph86%29.85 "Hg8 mi
12:56 am54 °FOvercast.No wind90%29.85 "Hg9 mi
11:56 pm
Wed, May 22
53 °FOvercast.8 mph89%29.85 "Hg7 mi
11:30 pm54 °FPassing clouds.9 mph90%29.85 "Hg7 mi
10:56 pm53 °FPassing clouds.6 mph89%29.85 "Hg8 mi
10:35 pm53 °FPassing clouds.7 mph89%29.85 "Hg7 mi
10:23 pm52 °FPassing clouds.7 mph93%29.84 "Hg7 mi
9:56 pm54 °FOvercast.10 mph86%29.83 "Hg8 mi
8:56 pm55 °FOvercast.12 mph83%29.83 "Hg8 mi
8:09 pm55 °FMostly cloudy.16 mph87%29.83 "Hg8 mi
Weather by CustomWeather, © 2019

See weather overview